Time,TemperatureF,DewpointF,PressureIn,WindDirection,WindDirectionDegrees,WindSpeedMPH,WindSpeedGustMPH,Humidity,HourlyPrecipIn,Conditions,Clouds,dailyrainin,SoftwareType,DateUTC
2013-03-24 00:03:00,32.0,-99.9,30.06,North,360,9.0,13.0,-999,-99.99,,,-99.99,,2013-03-24 04:03:00,
2013-03-24 00:13:00,32.0,-99.9,30.06,North,360,9.0,13.0,-999,-99.99,,,-99.99,,2013-03-24 04:13:00,
2013-03-24 00:23:00,32.0,-99.9,30.05,North,10,7.0,13.0,-999,-99.99,,,-99.99,,2013-03-24 04:23:00,
2013-03-24 00:33:00,32.0,-99.9,30.05,North,10,7.0,13.0,-999,-99.99,,,-99.99,,2013-03-24 04:33:00,
2013-03-24 00:43:00,32.0,-99.9,30.05,North,10,7.0,13.0,-999,-99.99,,,-99.99,,2013-03-24 04:43:00,
2013-03-24 00:53:00,32.0,-99.9,30.03,NNE,20,8.0,13.0,-999,-99.99,,,-99.99,,2013-03-24 04:53:00,
2013-03-24 01:03:00,32.0,-99.9,30.03,NNE,20,8.0,13.0,-999,-99.99,,,-99.99,,2013-03-24 05:03:00,
2013-03-24 01:13:00,32.0,-99.9,30.03,NNE,20,8.0,13.0,-999,-99.99,,,-99.99,,2013-03-24 05:13:00,
2013-03-24 01:23:00,31.0,-99.9,30.03,NE,40,10.0,13.0,-999,-99.99,,,-99.99,,2013-03-24 05:23:00,
2013-03-24 01:33:00,31.0,-99.9,30.03,NE,40,10.0,13.0,-999,-99.99,,,-99.99,,2013-03-24 05:33:00,
2013-03-24 01:43:00,31.0,-99.9,30.03,NE,40,10.0,13.0,-999,-99.99,,,-99.99,,2013-03-24 05:43:00,
2013-03-24 01:52:00,31.0,-99.9,30.03,NE,40,10.0,13.0,-999,-99.99,,,-99.99,,2013-03-24 05:52:00,
2013-03-24 02:00:00,31.0,-99.9,29.97,NE,40,14.0,15.0,-999,-99.99,,,-99.99,,2013-03-24 06:00:00,
2013-03-24 02:02:00,31.0,-99.9,29.99,NE,40,13.0,14.0,-999,-99.99,,,-99.99,,2013-03-24 06:02:00,
2013-03-24 02:12:00,31.0,-99.9,29.99,NE,40,13.0,14.0,-999,-99.99,,,-99.99,,2013-03-24 06:12:00,
2013-03-24 02:22:00,31.0,-99.9,29.97,NE,40,14.0,15.0,-999,-99.99,,,-99.99,,2013-03-24 06:22:00,
2013-03-24 02:32:00,31.0,-99.9,29.97,NE,40,14.0,15.0,-999,-99.99,,,-99.99,,2013-03-24 06:32:00,
2013-03-24 02:43:00,31.0,-99.9,29.97,NE,40,14.0,15.0,-999,-99.99,,,-99.99,,2013-03-24 06:43:00,
2013-03-24 02:52:00,31.0,-99.9,29.97,NE,40,14.0,15.0,-999,-99.99,,,-99.99,,2013-03-24 06:52:00,
2013-03-24 03:00:00,31.0,-99.9,30.01,NE,40,6.0,7.0,-999,-99.99,,,-99.99,,2013-03-24 07:00:00,
2013-03-24 03:22:00,31.0,-99.9,30.01,NE,40,6.0,7.0,-999,-99.99,,,-99.99,,2013-03-24 07:22:00,
2013-03-24 03:32:00,31.0,-99.9,30.01,NE,40,6.0,7.0,-999,-99.99,,,-99.99,,2013-03-24 07:32:00,
2013-03-24 03:42:00,31.0,-99.9,30.01,NE,40,6.0,7.0,-999,-99.99,,,-99.99,,2013-03-24 07:42:00,
2013-03-24 03:53:00,31.0,-99.9,30.01,NE,40,6.0,7.0,-999,-99.99,,,-99.99,,2013-03-24 07:53:00,
2013-03-24 04:12:00,31.0,-99.9,29.98,NE,40,9.0,10.0,-999,-99.99,,,-99.99,,2013-03-24 08:12:00,
2013-03-24 04:22:00,31.0,-99.9,29.99,NE,50,8.0,10.0,-999,-99.99,,,-99.99,,2013-03-24 08:22:00,
2013-03-24 04:32:00,31.0,-99.9,29.99,NE,50,8.0,10.0,-999,-99.99,,,-99.99,,2013-03-24 08:32:00,
2013-03-24 04:42:00,31.0,-99.9,29.99,NE,50,8.0,10.0,-999,-99.99,,,-99.99,,2013-03-24 08:42:00,
2013-03-24 04:53:00,31.0,-99.9,29.99,NE,50,8.0,10.0,-999,-99.99,,,-99.99,,2013-03-24 08:53:00,
2013-03-24 05:00:00,31.0,-99.9,30.00,ENE,60,6.0,7.0,-999,-99.99,,,-99.99,,2013-03-24 09:00:00,
2013-03-24 05:02:00,31.0,-99.9,30.01,NE,50,7.0,11.0,-999,-99.99,,,-99.99,,2013-03-24 09:02:00,
2013-03-24 05:12:00,31.0,-99.9,30.01,NE,50,7.0,11.0,-999,-99.99,,,-99.99,,2013-03-24 09:12:00,
2013-03-24 05:22:00,31.0,-99.9,30.00,ENE,60,6.0,7.0,-999,-99.99,,,-99.99,,2013-03-24 09:22:00,
2013-03-24 05:33:00,31.0,-99.9,30.00,ENE,60,6.0,7.0,-999,-99.99,,,-99.99,,2013-03-24 09:33:00,
2013-03-24 05:43:00,31.0,-99.9,30.00,ENE,60,6.0,7.0,-999,-99.99,,,-99.99,,2013-03-24 09:43:00,
2013-03-24 05:53:00,31.0,-99.9,30.00,ENE,60,6.0,7.0,-999,-99.99,,,-99.99,,2013-03-24 09:53:00,
2013-03-24 06:00:00,26.0,-99.9,29.99,South,170,7.0,7.0,-999,-99.99,,,-99.99,,2013-03-24 10:00:00,
2013-03-24 06:23:00,26.0,-99.9,29.99,South,170,7.0,7.0,-999,-99.99,,,-99.99,,2013-03-24 10:23:00,
2013-03-24 06:33:00,26.0,-99.9,29.99,South,170,7.0,7.0,-999,-99.99,,,-99.99,,2013-03-24 10:33:00,
2013-03-24 06:43:00,26.0,-99.9,29.99,South,170,7.0,7.0,-999,-99.99,,,-99.99,,2013-03-24 10:43:00,
2013-03-24 06:53:00,26.0,-99.9,29.99,South,170,7.0,7.0,-999,-99.99,,,-99.99,,2013-03-24 10:53:00,
2013-03-24 07:12:00,25.0,-99.9,29.99,South,170,7.0,8.0,-999,-99.99,,,-99.99,,2013-03-24 11:12:00,
2013-03-24 07:22:00,25.0,-99.9,29.99,South,170,7.0,8.0,-999,-99.99,,,-99.99,,2013-03-24 11:22:00,
2013-03-24 07:33:00,25.0,-99.9,29.99,South,170,7.0,8.0,-999,-99.99,,,-99.99,,2013-03-24 11:33:00,
2013-03-24 07:43:00,25.0,-99.9,29.99,South,170,7.0,8.0,-999,-99.99,,,-99.99,,2013-03-24 11:43:00,
2013-03-24 07:52:00,25.0,-99.9,29.99,South,170,7.0,8.0,-999,-99.99,,,-99.99,,2013-03-24 11:52:00,
2013-03-24 08:00:00,26.0,-99.9,29.98,SSE,160,7.0,7.0,-999,-99.99,,,-99.99,,2013-03-24 12:00:00,
2013-03-24 08:03:00,25.0,-99.9,29.98,SSE,150,6.0,8.0,-999,-99.99,,,-99.99,,2013-03-24 12:03:00,
2013-03-24 08:13:00,25.0,-99.9,29.98,SSE,150,6.0,8.0,-999,-99.99,,,-99.99,,2013-03-24 12:13:00,
2013-03-24 08:23:00,26.0,-99.9,29.98,SSE,160,7.0,7.0,-999,-99.99,,,-99.99,,2013-03-24 12:23:00,
2013-03-24 08:33:00,26.0,-99.9,29.98,SSE,160,7.0,7.0,-999,-99.99,,,-99.99,,2013-03-24 12:33:00,
2013-03-24 08:42:00,26.0,-99.9,29.98,SSE,160,7.0,7.0,-999,-99.99,,,-99.99,,2013-03-24 12:42:00,
2013-03-24 08:53:00,26.0,-99.9,29.98,SSE,160,7.0,7.0,-999,-99.99,,,-99.99,,2013-03-24 12:53:00,
2013-03-24 09:00:00,27.0,-99.9,29.98,SSE,160,5.0,6.0,-999,-99.99,,,-99.99,,2013-03-24 13:00:00,
2013-03-24 09:13:00,27.0,-99.9,29.98,South,170,6.0,7.0,-999,-99.99,,,-99.99,,2013-03-24 13:13:00,
2013-03-24 09:23:00,27.0,-99.9,29.98,SSE,160,5.0,6.0,-999,-99.99,,,-99.99,,2013-03-24 13:23:00,
2013-03-24 09:33:00,27.0,-99.9,29.98,SSE,160,5.0,6.0,-999,-99.99,,,-99.99,,2013-03-24 13:33:00,
2013-03-24 09:43:00,27.0,-99.9,29.98,SSE,160,5.0,6.0,-999,-99.99,,,-99.99,,2013-03-24 13:43:00,
2013-03-24 09:53:00,27.0,-99.9,29.98,SSE,160,5.0,6.0,-999,-99.99,,,-99.99,,2013-03-24 13:53:00,
2013-03-24 10:00:00,30.0,-99.9,29.97,ESE,120,8.0,9.0,-999,-99.99,,,-99.99,,2013-03-24 14:00:00,
2013-03-24 10:13:00,29.0,-99.9,29.97,ESE,120,7.0,9.0,-999,-99.99,,,-99.99,,2013-03-24 14:13:00,
2013-03-24 10:22:00,30.0,-99.9,29.97,ESE,120,8.0,9.0,-999,-99.99,,,-99.99,,2013-03-24 14:22:00,
2013-03-24 10:33:00,30.0,-99.9,29.97,ESE,120,8.0,9.0,-999,-99.99,,,-99.99,,2013-03-24 14:33:00,
2013-03-24 10:43:00,30.0,-99.9,29.97,ESE,120,8.0,9.0,-999,-99.99,,,-99.99,,2013-03-24 14:43:00,
2013-03-24 10:53:00,30.0,-99.9,29.97,ESE,120,8.0,9.0,-999,-99.99,,,-99.99,,2013-03-24 14:53:00,
2013-03-24 11:23:00,30.0,-99.9,29.92,ENE,70,10.0,11.0,-999,-99.99,,,-99.99,,2013-03-24 15:23:00,
2013-03-24 11:33:00,30.0,-99.9,29.92,ENE,70,10.0,11.0,-999,-99.99,,,-99.99,,2013-03-24 15:33:00,
2013-03-24 11:43:00,30.0,-99.9,29.92,ENE,70,10.0,11.0,-999,-99.99,,,-99.99,,2013-03-24 15:43:00,
2013-03-24 11:53:00,31.0,-99.9,29.91,ENE,60,11.0,14.0,-999,-99.99,,,-99.99,,2013-03-24 15:53:00,
2013-03-24 12:00:00,30.0,-99.9,29.90,NE,50,13.0,14.0,-999,-99.99,,,-99.99,,2013-03-24 16:00:00,
2013-03-24 12:03:00,31.0,-99.9,29.91,ENE,60,11.0,14.0,-999,-99.99,,,-99.99,,2013-03-24 16:03:00,
2013-03-24 12:13:00,31.0,-99.9,29.91,ENE,60,11.0,14.0,-999,-99.99,,,-99.99,,2013-03-24 16:13:00,
2013-03-24 12:23:00,30.0,-99.9,29.90,NE,50,13.0,14.0,-999,-99.99,,,-99.99,,2013-03-24 16:23:00,
2013-03-24 12:33:00,30.0,-99.9,29.90,NE,50,13.0,14.0,-999,-99.99,,,-99.99,,2013-03-24 16:33:00,
2013-03-24 12:43:00,30.0,-99.9,29.90,NE,50,13.0,14.0,-999,-99.99,,,-99.99,,2013-03-24 16:43:00,
2013-03-24 12:53:00,30.0,-99.9,29.90,NE,50,13.0,14.0,-999,-99.99,,,-99.99,,2013-03-24 16:53:00,
2013-03-24 13:00:00,31.0,-99.9,29.86,NE,50,18.0,21.0,-999,-99.99,,,-99.99,,2013-03-24 17:00:00,
2013-03-24 13:12:00,31.0,-99.9,29.86,ENE,60,17.0,20.0,-999,-99.99,,,-99.99,,2013-03-24 17:12:00,
2013-03-24 13:23:00,31.0,-99.9,29.86,NE,50,18.0,21.0,-999,-99.99,,,-99.99,,2013-03-24 17:23:00,
2013-03-24 13:33:00,31.0,-99.9,29.86,NE,50,18.0,21.0,-999,-99.99,,,-99.99,,2013-03-24 17:33:00,
2013-03-24 13:43:00,31.0,-99.9,29.86,NE,50,18.0,21.0,-999,-99.99,,,-99.99,,2013-03-24 17:43:00,
2013-03-24 13:53:00,31.0,-99.9,29.86,NE,50,18.0,21.0,-999,-99.99,,,-99.99,,2013-03-24 17:53:00,
2013-03-24 14:00:00,31.0,-99.9,29.80,ENE,60,23.0,26.0,-999,-99.99,,,-99.99,,2013-03-24 18:00:00,
2013-03-24 14:13:00,31.0,-99.9,29.82,NE,50,20.0,23.0,-999,-99.99,,,-99.99,,2013-03-24 18:13:00,
2013-03-24 14:22:00,31.0,-99.9,29.80,ENE,60,23.0,26.0,-999,-99.99,,,-99.99,,2013-03-24 18:22:00,
2013-03-24 14:33:00,31.0,-99.9,29.80,ENE,60,23.0,26.0,-999,-99.99,,,-99.99,,2013-03-24 18:33:00,
2013-03-24 14:43:00,31.0,-99.9,29.80,ENE,60,23.0,26.0,-999,-99.99,,,-99.99,,2013-03-24 18:43:00,
2013-03-24 14:53:00,31.0,-99.9,29.80,ENE,60,23.0,26.0,-999,-99.99,,,-99.99,,2013-03-24 18:53:00,
2013-03-24 15:00:00,31.0,-99.9,29.77,ENE,70,24.0,28.0,-999,-99.99,,,-99.99,,2013-03-24 19:00:00,
2013-03-24 15:12:00,31.0,-99.9,29.78,ENE,60,21.0,29.0,-999,-99.99,,,-99.99,,2013-03-24 19:12:00,
2013-03-24 15:23:00,31.0,-99.9,29.77,ENE,70,24.0,28.0,-999,-99.99,,,-99.99,,2013-03-24 19:23:00,
2013-03-24 15:33:00,31.0,-99.9,29.77,ENE,70,24.0,28.0,-999,-99.99,,,-99.99,,2013-03-24 19:33:00,
2013-03-24 15:43:00,31.0,-99.9,29.77,ENE,70,24.0,28.0,-999,-99.99,,,-99.99,,2013-03-24 19:43:00,
2013-03-24 15:53:00,31.0,-99.9,29.77,ENE,70,24.0,28.0,-999,-99.99,,,-99.99,,2013-03-24 19:53:00,
2013-03-24 16:00:00,32.0,-99.9,29.76,East,80,20.0,24.0,-999,-99.99,,,-99.99,,2013-03-24 20:00:00,
2013-03-24 16:22:00,32.0,-99.9,29.76,East,80,20.0,24.0,-999,-99.99,,,-99.99,,2013-03-24 20:22:00,
2013-03-24 16:33:00,32.0,-99.9,29.76,East,80,20.0,24.0,-999,-99.99,,,-99.99,,2013-03-24 20:33:00,
2013-03-24 16:43:00,32.0,-99.9,29.76,East,80,20.0,24.0,-999,-99.99,,,-99.99,,2013-03-24 20:43:00,
2013-03-24 16:53:00,32.0,-99.9,29.76,East,80,20.0,24.0,-999,-99.99,,,-99.99,,2013-03-24 20:53:00,
2013-03-24 17:12:00,32.0,-99.9,29.74,ENE,70,23.0,26.0,-999,-99.99,,,-99.99,,2013-03-24 21:12:00,
2013-03-24 17:23:00,32.0,-99.9,29.73,ENE,70,22.0,25.0,-999,-99.99,,,-99.99,,2013-03-24 21:23:00,
2013-03-24 17:33:00,32.0,-99.9,29.73,ENE,70,22.0,25.0,-999,-99.99,,,-99.99,,2013-03-24 21:33:00,
2013-03-24 17:43:00,32.0,-99.9,29.73,ENE,70,22.0,25.0,-999,-99.99,,,-99.99,,2013-03-24 21:43:00,
2013-03-24 17:53:00,32.0,-99.9,29.73,ENE,70,22.0,25.0,-999,-99.99,,,-99.99,,2013-03-24 21:53:00,
2013-03-24 18:03:00,32.0,-99.9,29.72,ENE,70,23.0,26.0,-999,-99.99,,,-99.99,,2013-03-24 22:03:00,
2013-03-24 18:13:00,32.0,-99.9,29.72,ENE,70,23.0,26.0,-999,-99.99,,,-99.99,,2013-03-24 22:13:00,
2013-03-24 18:23:00,32.0,-99.9,29.70,ENE,70,23.0,25.0,-999,-99.99,,,-99.99,,2013-03-24 22:23:00,
2013-03-24 18:33:00,32.0,-99.9,29.70,ENE,70,23.0,25.0,-999,-99.99,,,-99.99,,2013-03-24 22:33:00,
2013-03-24 18:43:00,32.0,-99.9,29.70,ENE,70,23.0,25.0,-999,-99.99,,,-99.99,,2013-03-24 22:43:00,
2013-03-24 18:53:00,32.0,-99.9,29.70,ENE,70,23.0,25.0,-999,-99.99,,,-99.99,,2013-03-24 22:53:00,
2013-03-24 19:03:00,32.0,-99.9,29.67,ENE,70,26.0,-999.0,-999,-99.99,,,-99.99,,2013-03-24 23:03:00,
2013-03-24 19:12:00,32.0,-99.9,29.67,ENE,70,26.0,-999.0,-999,-99.99,,,-99.99,,2013-03-24 23:12:00,
2013-03-24 19:23:00,32.0,-99.9,29.66,ENE,70,25.0,30.0,-999,-99.99,,,-99.99,,2013-03-24 23:23:00,
2013-03-24 19:32:00,32.0,-99.9,29.66,ENE,70,25.0,30.0,-999,-99.99,,,-99.99,,2013-03-24 23:32:00,
2013-03-24 19:43:00,32.0,-99.9,29.66,ENE,70,25.0,30.0,-999,-99.99,,,-99.99,,2013-03-24 23:43:00,
2013-03-24 19:53:00,33.0,-99.9,29.64,ENE,70,24.0,30.0,-999,-99.99,,,-99.99,,2013-03-24 23:53:00,
2013-03-24 20:00:00,33.0,-99.9,29.66,ENE,70,23.0,28.0,-999,-99.99,,,-99.99,,2013-03-25 00:00:00,
2013-03-24 20:02:00,33.0,-99.9,29.64,ENE,70,24.0,30.0,-999,-99.99,,,-99.99,,2013-03-25 00:02:00,
2013-03-24 20:12:00,33.0,-99.9,29.64,ENE,70,24.0,30.0,-999,-99.99,,,-99.99,,2013-03-25 00:12:00,
2013-03-24 20:23:00,33.0,-99.9,29.66,ENE,70,23.0,28.0,-999,-99.99,,,-99.99,,2013-03-25 00:23:00,
2013-03-24 20:33:00,33.0,-99.9,29.66,ENE,70,23.0,28.0,-999,-99.99,,,-99.99,,2013-03-25 00:33:00,
2013-03-24 20:43:00,33.0,-99.9,29.66,ENE,70,23.0,28.0,-999,-99.99,,,-99.99,,2013-03-25 00:43:00,
2013-03-24 20:53:00,33.0,-99.9,29.66,ENE,70,23.0,28.0,-999,-99.99,,,-99.99,,2013-03-25 00:53:00,